Location: Les Jeannots
(43.2262°N, 5.5774°E)
Time: 18:07:08
(UTC+00:00)

Cosmos 2219 Rocket - Pass Details

Date: 05 July 2020
Orbit: 827 x 848 km, 71.0° (Epoch: 12 August)

Event Time Altitude Azimuth Distance (km) Brightness Sun altitude
Exits shadow 20:30:20 - 172° (S) 2,650 4.3 -10.7°
Reaches altitude 10° 20:31:00 10° 169° (S) 2,422 4.1 -10.8°
Maximum altitude 20:35:58 35° 105° (ESE) 1,315 2.8 -11.4°
Drops below altitude 10° 20:40:59 10° 41° (NE) 2,445 4.7 -12.0°
Sets 20:43:37 0° 33° (NNE) 3,386 5.5 -12.3°
